Probability
0 0 0 0 0 0 0 0 0 0 0 0 0 0 0 0 0 0 0 0 0 0 0 0 0 0 0 0 0 0 0 0 0 0 0 0 0 0 0 0 0 0 0 0
0 0 0 0 0 0 0 0 0 0 0 0 0 0 0 0 0 0 0 0 0 0 0 0 0 0 0 0 0 0 0 0 0 0 0 0 0 0 0 0 0 0 0 0
0 0 0 0 0 0 0 0 0 0 0 0 0 0 0 0 0 0 0 0 0 0 0 0 0 0 0 0 0 0 0 0 0 0 0 0 0 0 0 0 0 0 0 0
0 0 0 0 0 0 0 0 0 0 0 0 0 0 0 0 0 0 0 0 0 0 0 0 0 0 0 0 0 0 0 0 0 0 0 0 0 0 0 0 0 0 0 0
0 0 0 0 0 0 0 0 0 0 0 0 0 0 0 0 0 0 0 0 0 0 0 0 0 0 0 0 0 0 0 0 0 0 0 0 0 0 0 0 0 0 0 0
0 0 0 0 0 0 0 0 0 0 0 0 0 0 0 0 0 0 0 0 0 0 0 0 0 0 0 0 0 0 0 0 0 0 0 0 0 0 0 0 0 0 0 0
0 0 0 0 0 0 0 0 0 0 0 0 0 0 0 0 0 0 0 0 0 0 0 0 0 0 0 0 0 0 0 0 0 0 0 0 0 0 0 0 0 0 0 0
0 0 0 0 0 0 0 0 0 0 0 0 0 0 0 0 0 0 0 0 0 0 0 0 0 0 0 0 0 0 0 0 0 0 0 0 0 0 0 0 0 0 0 0
0 0 0 0 0 0 0 0 0 0 0 0 0 0 0 0 0 0 0 0 0 0 0 0 0 0 0 0 0 0 0 0 0 0 0 0 0 0 0 0 0 0 0 0
0 0 0 0 0 0 0 0 0 0 0 0 0 0 0 0 0 0 0 0 0 0 0 0 0 0 0 0 0 0 0 0 0 0 0 0 0 0 0 0 0 0 0 0
0 0 0 0 0 0 0 0 0 0 0 0 0 0 0 0 0 0 0 0 0 0 0 0 0 0 0 0 0 0 0 0 0 0 0 0 0 0 0 0 0 0 0 0
0 0 0 0 0 0 0 0 0 0 0 0 0 0 0 0 0 0 0 0 0 0 0 0 0 0 0 0 0 0 0 0 0 0 0 0 0 0 0 0 0 0 0 0
0 0 0 0 0 0 0 0 0 0 0 0 0 0 0 0 0 0 0 0 0 0 0 0 0 0 0 0 0 0 0 0 0 0 0 0 0 0 0 0 0 0 0 0
0 0 0 0 0 0 0 0 0 0 0 0 0 0 0 0 0 0 0 0 0 0 0 0 0 0 0 0 0 0 0 0 0 0 0 0 0 0 0 0 0 0 0 0
0 0 0 0 0 0 0 0 0 0 0 0 0 0 0 0 0 0 0 0 0 0 0 0 0 0 0 0 0 0 0 0 0 0 0 0 0 0 0 0 0 0 0 0
0 0 0 0 0 0 0 0 0 0 0 0 0 0 0 0 0 0 0 0 0 0 0 0 0 0 0 0 0 0 0 0 0 0 0 0 0 0 0 0 0 0 0 0
0 0 0 0 0 0 0 0 0 0 0 0 0 0 0 0 0 0 0 0 0 0 0 0 0 0 0 0 0 0 0 0 0 0 0 0 0 0 0 0 0 0 0 0
0 0 0 0 0 0 0 0 0 0 0 0 0 0 0 0 0 0 0 0 0 0 0 0 0 0 0 0 0 0 0 0 0 0 0 0 0 0 0 0 0 0 0 0
0 0 0 0 0 0 0 0 0 0 0 0 0 0 0 0 0 0 0 0 0 0 0 0 0 0 0 0 0 0 0 0 0 0 0 0 0 0 0 0 0 0 0 0
0 0 0 0 0 0 0 0 0 0 0 0 0 0 0 0 0 0 0 0 0 0 0 0 0 0 0 0 0 0 0 0 0 0 0 0 0 0 0 0 0 0 0 0
0 0 0 0 0 0 0 0 0 0 0 0 0 0 0 0 0 0 0 0 0 0 0 0 0 0 0 0 0 0 0 0 0 0 0 0 0 0 0 0 0 0 0 0
0 0 0 0 0 0 0 0 0 0 0 0 0 0 0 0 0 0 0 0 0 0 0 0 0 0 0 0 0 0 0 0 0 0 0 0 0 0 0 0 0 0 0 0
0 0 0 0 0 0 0 0 0 0 0 0 0 0 0 0 0 0 0 0 0 0 0 0 0 0 0 0 0 0 0 0 0 0 0 0 0 0 0 0 0 0 0 0
0 0 0 0 0 0 0 0 0 0 0 0 0 0 0 0 0 0 0 0 0 0 0 0 0 0 0 0 0 0 0 0 0 0 0 0 0 0 0 0 0 0 0 0
0 0 0 0 0 0 0 0 0 0 0 0 0 0 0 0 0 0 0 0 0 0 0 0 0 0 0 0 0 0 0 0 0 0 0 0 0 0 0 0 0 0 0 0
0 0 0 0 0 0 0 0 0 0 0 0 0 0 0 0 0 0 0 0 0 0 0 0 0 0 0 0 0 0 0 0 0 0 0 0 0 0 0 0 0 0 0 0
0 0 0 0 0 0 0 0 0 0 0 0 0 0 0 0 0 0 0 0 0 0 0 0 0 0 0 0 0 0 0 0 0 0 0 0 0 0 0 0 0 0 0 0
Wind_Speed
5 4 3 5 7 6 8 8 8 9 9 11 6 6 5 4 3 2 2 2 3 3 3 3 2 2 2 2 2 2 2 2 3 3 3 3 3 3 3 3 4 4 4 4
3 3 3 6 8 8 9 8 9 8 12 7 4 3 4 4 3 3 3 4 4 4 3 3 3 3 2 3 2 2 2 3 3 3 3 3 3 3 3 3 3 3 4 4
3 4 3 7 8 8 6 6 7 10 10 4 3 4 5 4 3 4 4 4 4 4 4 4 4 3 3 3 2 2 3 3 3 3 3 3 3 3 3 4 3 3 4 4
1 2 5 8 2 4 5 7 8 7 6 5 5 5 4 3 3 4 4 4 4 3 4 3 3 3 3 2 2 2 3 3 3 3 3 3 3 4 4 3 3 4 4 4
2 3 8 7 3 3 5 6 5 7 7 4 2 2 3 2 2 4 4 4 4 4 3 3 2 2 2 2 2 2 3 4 3 3 4 3 4 4 4 3 3 3 4 4
3 3 7 6 3 2 2 6 4 4 5 3 1 2 5 2 2 3 3 3 3 3 2 2 2 1 1 2 2 3 4 4 4 4 4 4 4 4 3 3 3 3 4 4
5 5 9 6 2 2 3 7 3 3 5 4 4 6 3 2 2 2 3 3 3 2 2 3 2 1 2 2 3 4 3 3 3 3 3 4 4 3 3 3 3 3 4 4
5 5 10 3 4 5 7 3 2 2 3 3 4 3 2 2 2 2 3 3 3 2 3 3 1 1 2 3 4 3 2 3 3 3 2 2 3 3 3 2 2 3 3 3
8 9 4 4 6 5 2 2 3 3 3 3 3 3 3 3 3 3 3 3 2 2 3 3 2 1 2 4 3 2 2 3 3 3 2 2 2 2 2 2 2 3 3 3
6 8 6 5 5 4 3 4 3 3 3 3 4 4 3 3 3 3 3 3 2 2 2 3 3 2 2 3 2 2 2 3 2 2 2 2 2 2 2 2 2 3 3 3
6 7 6 6 6 5 3 3 2 3 3 3 4 3 3 3 3 3 3 2 2 2 3 3 3 3 3 2 2 2 2 3 2 2 2 2 2 2 2 2 3 3 3 3
8 7 5 6 4 4 4 3 3 3 3 2 3 3 3 3 3 3 3 2 2 3 3 3 3 3 3 2 2 2 2 2 2 2 2 1 2 3 4 4 5 5 5 4
8 4 4 5 4 3 3 3 3 3 3 3 3 2 2 3 3 2 2 2 3 3 3 3 3 3 3 3 2 2 2 2 2 2 2 2 2 2 3 4 5 5 5 5
5 3 4 5 4 3 3 3 2 2 2 2 2 2 2 2 3 3 3 3 3 3 3 3 3 3 3 2 2 2 2 3 3 2 2 2 2 2 2 3 3 3 4 5
6 6 6 4 3 2 2 2 1 2 2 2 2 2 2 3 4 4 4 3 2 2 2 2 3 4 3 2 2 2 2 2 2 2 1 1 2 2 2 2 3 3 3 3
3 3 3 3 4 4 3 3 4 4 3 3 3 3 3 3 4 4 3 2 2 3 3 3 4 4 2 2 2 2 2 3 3 2 1 1 2 2 2 2 2 2 3 3
4 4 4 5 5 5 5 5 5 5 4 4 4 3 3 2 3 4 4 3 3 4 3 3 4 3 2 2 2 2 2 3 4 2 2 2 2 2 2 2 2 3 3 3
7 7 7 6 6 6 5 4 4 4 4 4 3 2 3 3 4 4 4 3 3 3 4 4 3 2 2 2 2 1 1 2 2 2 2 2 2 2 2 2 2 3 3 3
5 5 5 5 5 5 5 5 4 4 3 3 3 4 4 4 4 4 3 2 3 4 4 3 4 2 2 3 2 1 1 2 2 2 2 3 3 2 2 2 2 2 2 2
3 3 4 4 4 4 4 4 4 3 3 3 3 3 4 4 3 3 3 4 4 4 3 3 3 2 3 3 3 1 2 2 2 2 2 2 2 2 2 2 2 2 2 2
4 3 3 3 3 4 4 4 4 4 3 3 4 4 4 4 3 3 3 4 4 3 3 4 2 2 2 2 3 1 2 2 2 2 2 2 2 3 2 2 2 2 2 2
3 3 3 3 3 3 3 2 3 3 3 3 3 3 3 4 4 3 4 4 4 4 2 2 2 3 3 3 1 2 2 2 2 2 2 2 2 3 2 2 2 3 2 2
3 3 3 3 3 3 2 2 2 3 3 4 4 4 4 4 3 3 4 3 2 4 3 2 4 5 4 2 1 2 2 2 2 3 3 3 3 3 3 3 2 2 2 2
3 3 3 2 1 1 2 3 2 2 3 3 3 4 3 3 3 3 3 4 4 4 2 3 5 4 3 1 1 2 2 2 3 3 3 2 2 2 2 2 2 2 2 2
3 3 2 2 2 3 3 2 2 2 2 2 3 3 3 3 3 3 2 3 4 3 2 3 4 3 1 1 1 2 2 2 2 2 2 2 2 2 2 2 2 2 2 2
3 3 3 3 3 2 2 2 2 2 2 2 2 2 2 2 2 2 2 2 3 3 2 1 2 2 1 1 1 2 2 2 2 2 2 2 2 2 2 2 2 2 2 2
2 2 2 2 2 2 2 3 3 3 2 2 3 2 2 1 1 1 2 1 1 1 1 1 1 1 1 1 1 2 2 2 2 2 2 2 2 2 2 2 2 2 2 2
Wind_Direction
256 265 233 240 243 225 220 220 222 241 245 259 256 254 257 261 258 268 286 285 272 270 274 273 272 269 261 262 260 258 254 259 262 264 265 271 277 274 269 260 261 259 261 264
283 267 252 267 256 234 233 235 240 257 268 261 258 271 273 265 249 263 275 271 269 272 274 265 263 267 270 264 261 248 246 255 266 270 268 273 285 285 272 265 264 261 255 257
272 308 338 274 243 219 218 217 208 233 249 259 276 262 250 244 243 253 263 270 267 259 250 251 251 250 254 257 257 238 242 256 259 261 263 266 276 281 268 261 265 263 256 254
263 8 245 246 225 194 213 239 225 242 257 249 249 261 251 225 225 260 276 278 271 265 262 263 256 259 261 253 247 243 252 259 262 265 267 262 264 267 265 261 254 251 255 257
170 242 273 281 253 193 206 262 234 234 257 267 284 317 284 240 231 246 259 263 261 259 258 257 258 260 259 257 252 253 259 256 261 259 259 257 259 262 263 257 254 253 253 252
174 210 244 257 257 224 149 271 254 218 238 241 130 259 264 278 294 293 296 284 277 280 276 266 267 257 244 262 259 260 263 261 258 255 247 249 251 258 264 259 259 258 260 253
204 233 260 260 265 109 173 254 261 209 219 207 204 221 253 298 303 303 304 298 297 291 279 260 248 219 237 262 263 271 280 283 275 258 247 252 252 254 257 261 261 259 260 260
184 217 252 218 142 189 227 258 224 222 222 224 235 251 267 274 288 307 317 315 313 303 298 291 258 215 250 267 279 296 301 298 291 282 260 262 246 256 258 258 264 268 266 272
200 219 242 193 206 228 215 230 238 228 240 226 244 259 270 276 281 291 297 300 301 290 300 310 303 248 259 283 299 309 309 303 301 297 280 268 249 249 260 252 256 267 267 270
255 262 254 244 244 254 233 229 240 232 237 230 240 252 267 276 281 288 292 294 300 303 300 303 303 295 280 289 300 303 301 306 308 302 302 301 286 263 255 250 254 264 265 270
255 274 293 273 236 231 240 239 242 253 244 231 231 247 254 266 276 281 289 296 299 287 283 290 300 299 304 305 300 298 299 302 305 304 305 316 312 300 285 270 267 266 260 253
233 233 222 257 257 221 219 234 233 244 272 266 233 246 260 263 266 271 281 290 295 293 292 296 303 305 309 309 298 290 298 305 305 307 306 308 314 325 326 315 315 305 299 290
240 247 237 260 271 236 221 233 237 231 237 257 260 242 247 266 269 276 285 289 280 280 284 290 297 300 306 309 303 288 289 295 295 296 296 299 303 309 317 327 326 318 312 305
241 239 259 251 247 242 235 240 243 246 249 244 250 255 252 267 276 279 278 276 277 281 288 289 294 296 301 305 300 295 293 290 295 288 290 293 299 305 305 308 316 319 315 311
246 231 234 245 247 245 230 219 235 259 263 267 256 247 248 254 265 272 279 286 290 292 293 294 295 298 307 306 302 297 293 296 294 294 295 300 307 307 302 301 304 314 323 317
260 257 236 231 235 238 230 223 230 245 246 244 247 254 259 260 269 281 286 281 273 279 283 285 286 294 298 293 296 296 291 300 310 307 306 310 306 303 302 302 306 310 310 312
219 239 237 241 238 238 233 230 225 230 231 233 239 248 260 268 278 281 281 277 268 272 277 273 278 291 290 282 277 283 291 296 303 311 301 293 290 288 289 296 304 308 307 314
230 236 230 225 227 232 240 237 229 226 230 235 237 235 239 240 252 266 276 285 288 290 284 273 275 285 280 277 270 277 284 288 289 285 286 285 288 288 290 291 292 295 308 315
241 236 235 233 226 221 227 232 232 230 232 223 225 236 243 247 251 260 269 272 272 281 285 281 293 295 278 273 281 274 275 278 284 288 288 290 295 292 285 284 287 291 298 307
249 244 238 239 235 223 228 232 228 231 229 217 224 240 255 259 257 256 256 256 250 250 265 275 272 269 267 267 270 260 263 270 275 283 286 281 281 284 284 284 284 287 289 290
253 250 247 243 247 243 232 225 218 228 232 217 218 232 246 258 255 246 246 267 268 255 260 271 267 265 262 260 259 254 257 264 269 273 279 280 282 284 285 284 286 285 284 286
253 243 243 241 237 250 249 230 222 227 232 233 235 236 244 257 256 253 245 248 263 270 267 251 252 263 269 266 244 242 251 260 266 269 270 271 272 277 280 280 279 281 282 282
255 244 241 237 233 244 263 244 227 223 228 233 235 236 239 244 238 243 269 261 250 261 263 251 264 271 274 267 250 245 249 255 262 267 269 269 268 268 272 276 276 277 279 284
252 250 247 245 226 234 261 264 250 239 238 243 242 238 235 248 258 242 246 269 272 270 258 265 274 277 274 260 251 253 255 256 259 264 268 271 272 271 271 274 278 281 281 282
240 239 230 216 222 237 246 259 268 265 259 261 262 254 239 227 237 255 254 258 270 281 274 276 281 281 276 260 255 258 261 262 264 264 262 265 267 267 269 271 270 272 275 276
237 233 228 225 227 233 230 229 244 251 250 268 280 267 257 252 248 253 257 261 266 279 277 270 274 274 258 253 258 263 265 276 282 276 268 264 264 263 265 267 268 265 267 269
243 237 235 248 246 227 218 221 233 241 238 244 266 262 253 256 257 259 261 267 271 266 265 269 269 258 250 250 260 266 266 266 265 262 263 264 264 261 261 261 262 263 264 266